Zurück zum Katalog

ATLAS 5 CENTAUR DEB

LostHEO
NORAD 49371·DEBRIS·🇺🇸 United States

Gestartet Oct 17, 2018 von Cape Canaveral Space Force Station

Loading…

Nächste Überflüge (nächste 24 Stunden)

TLE

VeraltetSource: Space-Track

Epoche: Feb 28, 2022, 18:46 UTC

1 49371U 18079FY  22059.78221333 -.00000116  00000-0  00000+0 0  9994
2 49371  10.8894 178.4645 4722951  47.5812 343.5971  1.84562044  3490

Verfolge ATLAS 5 CENTAUR DEB in Echtzeit mit AllMySat

Download on the App Store